Location: Unspecified
(0.0000°N, 0.0000°E)
Time: 20:19:38
(UTC+00:00)

AEROCUBE 6B - Visible Passes

Search period start: 12 January 2025 00:00
Search period end: 22 January 2025 00:00
Orbit: 567 x 628 km, 97.7° (Epoch: 12 January)

Date Brightness Start Highest point End Pass type
(mag) Time Alt. Az. Time Alt. Az. Time Alt. Az.
12 Jan ? 04:04:27 10° SE 04:07:44 23° ENE 04:09:40 17° NE visible
12 Jan ? 05:41:35 10° SW 05:43:10 12° WSW 05:44:45 10° WNW visible
13 Jan ? 04:14:26 10° SE 04:18:08 33° ENE 04:20:11 21° NNE visible
14 Jan ? 04:24:35 10° SSE 04:28:32 48° ENE 04:30:40 24° NNE visible
15 Jan ? 04:34:50 10° SSE 04:38:55 72° E 04:41:09 26° N visible
16 Jan ? 04:45:11 10° S 04:49:17 78° WSW 04:51:38 25° NNW visible
17 Jan ? 04:55:38 10° S 04:59:39 53° W 05:02:05 22° NNW visible
18 Jan ? 05:06:12 10° SSW 05:09:59 36° WSW 05:12:32 18° NW visible
19 Jan ? 03:43:37 10° E 03:44:56 11° ENE 03:46:16 10° ENE visible
19 Jan ? 05:16:53 10° SSW 05:20:19 26° WSW 05:22:58 14° NW visible
20 Jan ? 03:52:38 10° ESE 03:55:14 16° ENE 03:56:42 14° NE visible
20 Jan ? 05:27:45 10° SW 05:30:38 18° WSW 05:33:24 11° WNW visible
21 Jan ? 04:02:14 10° SE 04:05:31 23° ENE 04:07:07 18° NE visible
21 Jan ? 05:38:58 10° SW 05:40:56 13° WSW 05:42:55 10° WNW visible
